Total_Precipitation_Accumulation
0.03 0.05 0.09 0.08 0.08 0.15 0.15 0.16 0.24 0.30 0.26 0.33 0.46 0.61 0.82 0.98 1.26 1.53 1.53 1.48 1.56 1.80 2.06 2.31 2.68 3.05 3.27 3.45 3.56 3.86 4.08 3.82 3.38 3.00 2.55 2.37 2.31 2.09 1.89 1.80 1.67 1.80 1.73 1.91
0.03 0.05 0.06 0.04 0.04 0.09 0.12 0.14 0.24 0.31 0.26 0.30 0.46 0.76 0.91 0.99 1.05 1.19 1.31 1.23 1.34 1.64 1.68 1.78 1.93 2.25 2.40 2.64 2.94 3.28 3.50 3.33 2.80 2.59 2.42 2.31 2.25 2.08 2.03 1.95 1.96 1.76 1.74 1.89
0.02 0.04 0.04 0.04 0.03 0.06 0.11 0.12 0.17 0.25 0.25 0.34 0.49 1.06 1.12 0.98 0.89 0.82 0.99 1.05 1.06 1.26 1.40 1.46 1.48 1.59 1.91 2.46 2.65 2.54 2.77 2.95 2.68 2.58 2.50 2.40 2.36 2.15 2.20 2.14 2.04 1.71 1.60 1.64
0.03 0.03 0.02 0.03 0.04 0.05 0.10 0.09 0.10 0.14 0.21 0.50 0.59 1.13 1.19 1.02 0.99 0.80 0.78 0.82 0.79 0.78 0.96 1.11 1.13 1.23 1.42 1.72 2.02 2.28 2.56 2.70 2.61 2.48 2.26 2.11 1.93 1.85 1.87 1.88 1.88 1.75 1.67 1.57
0.02 0.02 0.02 0.03 0.03 0.04 0.05 0.05 0.07 0.13 0.22 0.45 0.56 0.95 1.18 1.01 1.15 0.86 0.58 0.47 0.42 0.44 0.56 0.74 0.86 0.98 1.02 1.22 1.61 2.07 2.47 2.74 2.59 2.28 2.10 2.13 1.97 1.91 1.84 1.78 2.01 1.88 1.77 1.63
0.02 0.02 0.02 0.02 0.02 0.03 0.03 0.06 0.15 0.27 0.43 0.80 0.76 0.81 1.11 0.87 0.70 0.52 0.39 0.31 0.31 0.34 0.39 0.52 0.63 0.78 0.87 1.01 1.28 1.65 2.01 2.27 2.29 2.14 2.05 2.11 2.14 2.11 1.96 1.78 1.80 1.67 1.65 1.60
0.07 0.06 0.04 0.02 0.02 0.03 0.03 0.07 0.29 0.54 0.79 0.97 0.61 0.79 1.13 0.70 0.54 0.41 0.33 0.29 0.27 0.26 0.37 0.51 0.60 0.70 0.74 0.79 0.99 1.31 1.54 1.71 1.91 2.00 2.01 1.97 2.10 2.14 1.94 1.72 1.70 1.69 1.53 1.49
0.10 0.16 0.07 0.03 0.03 0.03 0.04 0.05 0.15 0.26 0.39 0.56 0.62 1.24 1.10 0.55 0.42 0.34 0.28 0.27 0.24 0.24 0.34 0.48 0.59 0.63 0.63 0.65 0.85 1.05 1.25 1.48 1.73 1.88 1.95 1.92 1.87 1.75 1.70 1.81 1.72 1.70 1.66 1.60
0.04 0.06 0.04 0.03 0.03 0.03 0.04 0.05 0.07 0.11 0.14 0.40 0.74 0.92 0.64 0.36 0.35 0.37 0.32 0.31 0.29 0.33 0.43 0.51 0.65 0.72 0.63 0.65 0.81 0.90 1.08 1.27 1.43 1.67 1.84 1.78 1.77 1.66 1.65 1.71 1.66 1.61 1.74 1.70
0.03 0.03 0.03 0.02 0.03 0.04 0.05 0.04 0.06 0.07 0.13 0.30 0.59 0.83 0.86 0.57 0.43 0.38 0.38 0.39 0.38 0.42 0.55 0.64 0.67 0.73 0.71 0.72 0.81 0.90 1.04 1.15 1.20 1.36 1.46 1.39 1.59 1.64 1.76 1.74 1.65 1.57 1.57 1.61
0.02 0.02 0.02 0.03 0.03 0.05 0.06 0.05 0.04 0.05 0.07 0.18 0.45 0.64 0.63 0.57 0.52 0.40 0.37 0.45 0.53 0.51 0.64 0.68 0.68 0.70 0.67 0.71 0.76 0.80 0.95 1.07 1.12 1.26 1.34 1.40 1.49 1.57 1.65 1.67 1.64 1.63 1.64 1.66
0.02 0.02 0.02 0.04 0.06 0.05 0.08 0.10 0.09 0.08 0.07 0.11 0.22 0.37 0.35 0.40 0.46 0.39 0.39 0.51 0.61 0.46 0.51 0.66 0.73 0.78 0.61 0.65 0.72 0.75 0.83 0.93 1.00 1.21 1.38 1.47 1.60 1.63 1.57 1.55 1.73 1.77 1.77 1.76
0.02 0.02 0.03 0.10 0.15 0.11 0.08 0.08 0.10 0.09 0.09 0.08 0.15 0.31 0.29 0.30 0.42 0.40 0.45 0.56 0.58 0.53 0.49 0.65 0.77 0.72 0.64 0.65 0.72 0.76 0.85 0.94 1.02 1.15 1.33 1.54 1.62 1.66 1.73 1.84 1.99 2.08 2.02 1.99
0.03 0.02 0.03 0.11 0.19 0.23 0.17 0.10 0.09 0.09 0.09 0.08 0.12 0.23 0.30 0.37 0.45 0.45 0.48 0.59 0.61 0.55 0.47 0.53 0.73 0.76 0.70 0.69 0.71 0.76 0.89 1.03 1.21 1.45 1.58 1.69 1.86 1.97 2.01 1.97 2.06 2.10 2.14 2.19
0.03 0.02 0.02 0.04 0.08 0.13 0.13 0.09 0.08 0.08 0.08 0.10 0.13 0.22 0.31 0.41 0.47 0.54 0.57 0.57 0.58 0.53 0.53 0.66 0.79 0.94 0.93 0.87 0.82 0.87 1.09 1.29 1.51 1.78 1.86 1.89 1.95 2.06 2.18 2.30 2.33 2.32 2.32 2.27
0.05 0.04 0.05 0.06 0.08 0.09 0.08 0.08 0.07 0.07 0.07 0.08 0.13 0.23 0.34 0.46 0.49 0.46 0.50 0.49 0.53 0.62 0.68 0.81 0.95 1.07 1.17 1.21 1.21 1.25 1.41 1.67 1.96 2.25 2.37 2.48 2.53 2.59 2.65 2.68 2.70 2.74 2.70 2.64
0.14 0.14 0.14 0.12 0.12 0.12 0.10 0.09 0.09 0.09 0.11 0.12 0.18 0.28 0.42 0.57 0.53 0.58 0.62 0.59 0.67 0.74 0.84 0.95 1.06 1.12 1.25 1.31 1.40 1.57 1.75 1.99 2.23 2.40 2.50 2.62 2.74 2.87 2.96 2.97 2.96 2.85 2.78 2.70
0.34 0.30 0.24 0.19 0.23 0.25 0.15 0.16 0.19 0.22 0.25 0.28 0.30 0.37 0.47 0.58 0.60 0.64 0.67 0.66 0.68 0.81 0.98 1.02 1.07 1.18 1.25 1.39 1.56 1.73 1.82 1.98 2.30 2.50 2.58 2.63 2.69 2.79 2.93 3.10 3.03 2.88 2.81 2.76
0.42 0.48 0.43 0.32 0.29 0.31 0.30 0.27 0.29 0.38 0.47 0.44 0.59 0.66 0.61 0.64 0.70 0.72 0.72 0.87 0.88 0.88 0.97 1.04 1.15 1.24 1.36 1.42 1.48 1.52 1.60 1.78 2.01 2.23 2.39 2.40 2.53 2.72 2.82 2.86 2.88 2.93 2.88 2.70
0.34 0.38 0.45 0.47 0.49 0.46 0.45 0.47 0.38 0.43 0.76 0.76 0.85 0.94 0.88 0.90 1.08 1.00 0.77 0.77 0.84 0.91 0.98 1.09 1.23 1.29 1.30 1.32 1.34 1.43 1.58 1.80 2.01 2.21 2.40 2.57 2.68 2.81 2.85 2.90 3.00 3.00 2.94 2.90
0.50 0.52 0.51 0.53 0.58 0.58 0.50 0.46 0.48 0.80 1.07 1.05 1.13 1.16 1.09 1.13 1.16 1.07 0.91 0.85 0.84 0.90 0.97 1.06 1.22 1.35 1.35 1.37 1.51 1.64 1.78 1.95 2.12 2.25 2.33 2.46 2.62 2.80 3.01 3.18 3.12 3.07 3.00 2.89
0.73 0.73 0.71 0.74 0.94 1.06 0.78 0.70 0.91 1.08 0.85 0.91 1.10 1.30 1.32 1.26 1.17 1.08 0.99 0.91 0.83 0.80 0.87 1.05 1.18 1.32 1.45 1.58 1.73 1.86 1.90 1.96 2.13 2.31 2.39 2.45 2.61 2.65 2.75 2.95 2.94 2.82 2.79 2.76
0.83 0.94 1.03 1.07 1.24 1.13 0.95 0.97 0.92 0.98 1.12 1.19 1.30 1.50 1.51 1.36 1.23 1.23 1.15 1.03 0.93 0.91 0.96 1.07 1.19 1.31 1.40 1.58 1.77 1.92 2.02 2.10 2.20 2.29 2.42 2.58 2.65 2.67 2.78 2.93 2.95 2.85 2.75 2.65
0.87 0.77 0.98 1.28 1.42 1.25 1.09 1.06 1.02 1.08 1.27 1.34 1.32 1.35 1.36 1.31 1.25 1.38 1.39 1.23 1.18 1.18 1.17 1.20 1.27 1.34 1.42 1.51 1.68 1.88 2.01 2.06 2.18 2.24 2.30 2.44 2.57 2.69 2.83 2.84 2.73 2.59 2.42 2.32
0.91 0.95 1.13 1.54 1.74 1.66 1.47 1.33 1.24 1.25 1.22 1.30 1.24 1.26 1.26 1.26 1.26 1.35 1.47 1.50 1.42 1.30 1.23 1.26 1.33 1.41 1.45 1.51 1.59 1.81 2.02 2.08 2.10 2.21 2.25 2.24 2.27 2.37 2.49 2.56 2.50 2.36 2.22 2.11
0.99 1.20 1.52 1.90 1.90 2.01 1.88 1.56 1.38 1.43 1.38 1.33 1.28 1.36 1.41 1.37 1.31 1.34 1.47 1.52 1.50 1.39 1.34 1.34 1.37 1.40 1.44 1.54 1.64 1.71 1.95 2.18 2.25 2.23 2.11 2.03 1.95 1.96 1.98 1.98 2.03 2.14 2.03 2.02